^^
Datos históricos de la estación: Murcia-Puente Tocinos
Diario Informe para Abril 9, 2021 Unidades:  Métrico    Ingés   Ambas
Diario Semanal Mensual Anual
  Máxima: Mínima: Promedio:
Temperatura: 10.7 °C 5.9 °C 7.6 °C
Punto de rocio: 7.8 °C 4.8 °C 6.1 °C
Humedad: 98% 80% 90%
Velocidad viento: 10.3km/h 0km/h 6km/h
Racha viento: 24.1km/h - -
Viento- - SSO
Presión: 1006.5 hPa 1001.6 hPa -
Precipitación: 6.3 mm    
 
 
Tabla de datos para Abril 9, 2021
Hora Temperatura Punto de rocio Presión Viento Velocidad viento Racha viento Humedad Intensidad lluvia(por hora) Nubes
00:04 6.1 °C 5.7 °C 1003.4 hPa Sur 6.5 km/h 9.7 km/h 97% 1.3 mm
00:09 6.1 °C 5.7 °C 1003.4 hPa Sur 6 km/h 11.9 km/h 97% 1.1 mm
00:14 6.1 °C 5.7 °C 1003.2 hPa OSO 5.8 km/h 14.5 km/h 97% 1.1 mm
00:19 6.1 °C 5.7 °C 1003.2 hPa Oeste 7.4 km/h 13 km/h 97% 1.4 mm
00:24 6.1 °C 5.7 °C 1003.2 hPa SO 8.4 km/h 13 km/h 97% 1.1 mm
00:29 6 °C 5.6 °C 1003.1 hPa SO 7.8 km/h 16.7 km/h 97% 1.1 mm
00:34 6 °C 5.6 °C 1003.1 hPa SO 7.6 km/h 16.1 km/h 97% 1.1 mm
00:39 6 °C 5.5 °C 1003.1 hPa Oeste 7.2 km/h 11.3 km/h 97% 1.1 mm
00:44 5.9 °C 5.4 °C 1003.1 hPa OSO 6.9 km/h 9.7 km/h 97% 1.1 mm
00:49 5.9 °C 5.4 °C 1003.1 hPa SO 6.2 km/h 11.9 km/h 97% 0.8 mm
00:54 5.9 °C 5.5 °C 1003.2 hPa SO 5.8 km/h 12.2 km/h 97% 0.5 mm
00:59 6 °C 5.5 °C 1003.2 hPa OSO 6.5 km/h 13 km/h 97% 0.5 mm
01:04 5.9 °C 5.4 °C 1003.2 hPa OSO 6.9 km/h 12.9 km/h 97% 0.8 mm
01:09 5.9 °C 5.4 °C 1003.2 hPa OSO 7.3 km/h 13 km/h 97% 1.0 mm
01:14 5.9 °C 5.4 °C 1002.8 hPa SO 7.6 km/h 16.7 km/h 97% 1.0 mm
01:19 5.9 °C 5.4 °C 1002.8 hPa OSO 8.3 km/h 16.1 km/h 97% 0.7 mm
01:24 5.9 °C 5.4 °C 1002.8 hPa SO 8.7 km/h 12.9 km/h 97% 0.7 mm
01:29 5.9 °C 5.4 °C 1002.6 hPa OSO 6.4 km/h 14.8 km/h 97% 0.9 mm
01:34 5.9 °C 5.4 °C 1002.6 hPa Oeste 5 km/h 14.8 km/h 97% 0.9 mm
01:39 5.9 °C 5.4 °C 1002.6 hPa OSO 6.3 km/h 12.9 km/h 97% 0.9 mm
01:44 5.9 °C 5.5 °C 1002.4 hPa OSO 6.9 km/h 13.7 km/h 97% 0.9 mm
01:49 6 °C 5.6 °C 1002.4 hPa Oeste 7.3 km/h 14.5 km/h 97% 0.7 mm
01:54 6 °C 5.6 °C 1002.4 hPa SO 7.6 km/h 11.3 km/h 97% 0.7 mm
01:59 6 °C 5.6 °C 1002.4 hPa SO 6.4 km/h 11.3 km/h 97% 1.2 mm
02:04 6.1 °C 5.7 °C 1002.4 hPa OSO 5.8 km/h 11.9 km/h 97% 0.9 mm
02:09 6.1 °C 5.7 °C 1002.5 hPa SO 6.2 km/h 14.8 km/h 97% 0.9 mm
02:14 6.1 °C 5.7 °C 1002.5 hPa OSO 6.5 km/h 22.2 km/h 97% 1.0 mm
02:19 6 °C 5.6 °C 1002.5 hPa OSO 8.6 km/h 18.5 km/h 97% 1.0 mm
02:24 6 °C 5.6 °C 1002.5 hPa OSO 10 km/h 19.3 km/h 97% 1.0 mm
02:29 5.9 °C 5.5 °C 1002.3 hPa SO 8.4 km/h 14.8 km/h 97% 1.0 mm
02:34 5.9 °C 5.4 °C 1002.3 hPa SO 7.6 km/h 13 km/h 97% 1.0 mm
02:39 5.9 °C 5.4 °C 1002.4 hPa SO 7.6 km/h 13 km/h 97% 1.3 mm
02:44 5.9 °C 5.4 °C 1002.4 hPa SO 7.6 km/h 13.7 km/h 97% 1.3 mm
02:49 5.9 °C 5.4 °C 1002.4 hPa SO 7.6 km/h 14.5 km/h 97% 1.3 mm
02:54 5.9 °C 5.4 °C 1002.7 hPa SSO 7.6 km/h 11.9 km/h 97% 1.3 mm
02:59 6 °C 5.5 °C 1002.7 hPa SO 6.8 km/h 13.7 km/h 97% 1.3 mm
03:04 6 °C 5.6 °C 1002.7 hPa OSO 6.5 km/h 14.5 km/h 97% 1.0 mm
03:09 6 °C 5.6 °C 1002.7 hPa SO 7.2 km/h 13 km/h 97% 1.0 mm
03:14 6 °C 5.6 °C 1002.5 hPa Sur 7.6 km/h 11.3 km/h 97% 1.3 mm
03:19 6.1 °C 5.6 °C 1002.5 hPa SSO 6.5 km/h 9.7 km/h 97% 1.3 mm
03:24 6.1 °C 5.7 °C 1002.5 hPa SSO 5.8 km/h 9.7 km/h 97% 1.6 mm
03:29 6.1 °C 5.7 °C 1002.5 hPa Sur 5.8 km/h 9.7 km/h 97% 1.4 mm
03:34 6.1 °C 5.7 °C 1002.5 hPa SSO 5.8 km/h 9.7 km/h 97% 1.4 mm
03:39 6.1 °C 5.7 °C 1002.5 hPa SSE 4.6 km/h 8 km/h 97% 1.6 mm
03:44 6.1 °C 5.7 °C 1002.4 hPa SE 3.9 km/h 7.4 km/h 97% 1.6 mm
03:49 6.1 °C 5.7 °C 1002.4 hPa Sur 4.6 km/h 8.4 km/h 97% 1.6 mm
03:54 6.1 °C 5.7 °C 1002.4 hPa SSO 5 km/h 8 km/h 97% 1.9 mm
03:59 6.1 °C 5.7 °C 1002.2 hPa SSO 5 km/h 9.5 km/h 97% 1.9 mm
04:04 6.2 °C 5.7 °C 1002.2 hPa Sur 5 km/h 10 km/h 97% 1.7 mm
04:09 6.2 °C 5.8 °C 1002.2 hPa SSO 6.2 km/h 13 km/h 97% 1.7 mm
04:14 6.2 °C 5.8 °C 1002.2 hPa SSO 6.9 km/h 12.9 km/h 97% 1.7 mm
04:19 6.2 °C 5.8 °C 1002.2 hPa Sur 7.3 km/h 11.3 km/h 97.6% 1.5 mm
04:24 6.2 °C 5.8 °C 1002.3 hPa Sur 7.6 km/h 11.3 km/h 97% 1.5 mm
04:29 6.2 °C 5.8 °C 1002.3 hPa Sur 6.9 km/h 9.7 km/h 97% 1.5 mm
04:34 6.2 °C 5.8 °C 1002.3 hPa SSO 6.5 km/h 11.1 km/h 97% 1.7 mm
04:39 6.2 °C 5.8 °C 1002.3 hPa Sur 7.1 km/h 13 km/h 97% 1.7 mm
04:44 6.2 °C 5.7 °C 1002.2 hPa Sur 7.6 km/h 12.9 km/h 97% 1.5 mm
04:49 6.2 °C 5.7 °C 1002.2 hPa Sur 6.5 km/h 11.3 km/h 97% 1.2 mm
04:54 6.2 °C 5.7 °C 1002.2 hPa Sur 5.8 km/h 11.1 km/h 97% 1.4 mm
04:59 6.1 °C 5.7 °C 1002.1 hPa Sur 6.2 km/h 11.3 km/h 97% 1.4 mm
05:04 6.1 °C 5.7 °C 1002.1 hPa Sur 6.5 km/h 13 km/h 97.5% 1.4 mm
05:09 6.1 °C 5.8 °C 1002.1 hPa Sur 6.5 km/h 13 km/h 98% 1.4 mm
05:14 6.1 °C 5.8 °C 1001.9 hPa SSO 6.5 km/h 13 km/h 97.7% 1.4 mm
05:19 6.1 °C 5.7 °C 1001.9 hPa Sur 7.2 km/h 12.9 km/h 97.2% 1.2 mm
05:24 6.1 °C 5.8 °C 1002.1 hPa Sur 7.6 km/h 14 km/h 97.8% 1.2 mm
05:29 6.1 °C 5.8 °C 1002.1 hPa SSO 8.3 km/h 14.8 km/h 98% 1.2 mm
05:34 6.1 °C 5.8 °C 1002.1 hPa SSO 8.7 km/h 14.8 km/h 98% 0.9 mm
05:39 6.1 °C 5.8 °C 1002.1 hPa SSO 8.7 km/h 18.5 km/h 98% 0.7 mm
05:44 6.1 °C 5.8 °C 1002.1 hPa Sur 8.7 km/h 19.3 km/h 98% 0.7 mm
05:49 6.1 °C 5.8 °C 1002.1 hPa Sur 9.2 km/h 16.7 km/h 98% 0.7 mm
05:54 6.1 °C 5.8 °C 1002.1 hPa SSO 9.5 km/h 16.7 km/h 98% 0.7 mm
05:59 6.1 °C 5.8 °C 1002.1 hPa SSO 9.5 km/h 17.2 km/h 98% 0.5 mm
06:04 6.1 °C 5.8 °C 1002.1 hPa SSE 9.5 km/h 17.7 km/h 98% 0.5 mm
06:09 6.1 °C 5.8 °C 1002.1 hPa SSE 8.8 km/h 16.1 km/h 98% 0.5 mm
06:14 6.1 °C 5.8 °C 1002.0 hPa Sur 8.4 km/h 11.3 km/h 98% 0.5 mm
06:19 6.1 °C 5.8 °C 1002.0 hPa Sur 7.9 km/h 11.1 km/h 98% 0.5 mm
06:24 6.1 °C 5.8 °C 1002.1 hPa Sur 7.6 km/h 11.9 km/h 98% 0.3 mm
06:29 6.1 °C 5.8 °C 1002.1 hPa SSO 7.2 km/h 11.3 km/h 98% 0.3 mm
06:34 6.1 °C 5.8 °C 1002.1 hPa Sur 6.9 km/h 9.5 km/h 98% 0.3 mm
06:39 6.1 °C 5.8 °C 1002.1 hPa SSE 6.2 km/h 9.7 km/h 98% 0.3 mm
06:44 6.1 °C 5.8 °C 1001.9 hPa SE 5.8 km/h 9.7 km/h 98% 0.3 mm
06:49 6.1 °C 5.8 °C 1001.9 hPa SSE 5.8 km/h 9.7 km/h 98% 0.3 mm
06:54 6.1 °C 5.8 °C 1002.2 hPa SSE 5.8 km/h 11.1 km/h 98% 0.3 mm
06:59 6.1 °C 5.8 °C 1002.2 hPa Sur 6.5 km/h 13.7 km/h 98% 0.0 mm
07:04 6.1 °C 5.9 °C 1002.2 hPa SSE 6.9 km/h 14.5 km/h 98% 0.0 mm
07:09 6.1 °C 5.8 °C 1002.3 hPa SSO 7.4 km/h 13 km/h 98% 0.0 mm
07:14 6.1 °C 5.8 °C 1002.3 hPa SSO 7.6 km/h 13 km/h 98% 0.0 mm
07:19 6.1 °C 5.8 °C 1002.3 hPa SSO 7.6 km/h 12.9 km/h 98% 0.0 mm
07:24 6.1 °C 5.8 °C 1002.5 hPa SSO 7.6 km/h 14.8 km/h 98% 0.0 mm
07:29 6.1 °C 5.8 °C 1002.5 hPa SSO 7.2 km/h 14.8 km/h 98% 0.0 mm
07:34 6.1 °C 5.8 °C 1002.5 hPa Sur 6.9 km/h 14.5 km/h 98% 0.0 mm
07:39 6.1 °C 5.8 °C 1002.5 hPa Sur 7.3 km/h 13 km/h 98% 0.0 mm
07:44 6.1 °C 5.8 °C 1002.5 hPa SSE 7.6 km/h 12.9 km/h 97.9% 0.0 mm
07:49 6.1 °C 5.7 °C 1002.5 hPa SSE 8.1 km/h 13.7 km/h 97.1% 0.0 mm
07:54 6.1 °C 5.7 °C 1002.6 hPa SSE 8.4 km/h 14.5 km/h 97% 0.0 mm
07:59 6.1 °C 5.7 °C 1002.6 hPa Sur 8.4 km/h 12.9 km/h 97% 0.0 mm
08:04 6.1 °C 5.7 °C 1002.6 hPa Sur 8.4 km/h 11.9 km/h 97% 0.0 mm
08:09 6.1 °C 5.7 °C 1002.6 hPa Sur 7.1 km/h 11.3 km/h 97% 0.0 mm
08:14 6.1 °C 5.7 °C 1002.5 hPa SSO 6.5 km/h 9.7 km/h 97% 0.0 mm
08:19 6.2 °C 5.8 °C 1002.5 hPa SO 5.5 km/h 9.7 km/h 97% 0.0 mm
08:24 6.2 °C 5.8 °C 1002.5 hPa OSO 5 km/h 8 km/h 97% 0.0 mm
08:29 6.2 °C 5.8 °C 1002.5 hPa OSO 4.3 km/h 6.4 km/h 97% 0.0 mm
08:34 6.2 °C 5.8 °C 1002.5 hPa SO 3.9 km/h 7.4 km/h 97% 0.0 mm
08:39 6.2 °C 5.8 °C 1002.6 hPa OSO 3.9 km/h 8.4 km/h 97% 0.0 mm
08:44 6.2 °C 5.8 °C 1002.6 hPa SO 3.9 km/h 8 km/h 97% 0.0 mm
08:49 6.2 °C 5.8 °C 1002.6 hPa SO 4.4 km/h 8.4 km/h 97% 0.0 mm
08:54 6.2 °C 5.8 °C 1002.8 hPa SO 4.7 km/h 9.3 km/h 97% 0.0 mm
08:59 6.2 °C 5.8 °C 1002.8 hPa SO 4.9 km/h 9.7 km/h 97% 0.0 mm
09:04 6.2 °C 5.8 °C 1002.8 hPa SO 5 km/h 9.7 km/h 97% 0.0 mm
09:09 6.3 °C 5.8 °C 1003.0 hPa SSO 5.5 km/h 9.7 km/h 97% 0.0 mm
09:14 6.3 °C 5.8 °C 1003.0 hPa SSO 5.8 km/h 8.7 km/h 97% 0.0 mm
09:19 6.3 °C 5.9 °C 1003.0 hPa SSO 5.8 km/h 12.2 km/h 97% 0.0 mm
09:24 6.3 °C 5.8 °C 1003.2 hPa SSO 5.8 km/h 15.6 km/h 96.3% 0.0 mm
09:29 6.4 °C 5.8 °C 1003.2 hPa SO 7.7 km/h 16.1 km/h 96% 0.0 mm
09:34 6.4 °C 5.8 °C 1003.2 hPa SSO 8.7 km/h 14.5 km/h 96% 0.0 mm
09:39 6.4 °C 5.8 °C 1003.6 hPa SO 7.5 km/h 11.9 km/h 96% 0.0 mm
09:44 6.4 °C 5.8 °C 1003.6 hPa OSO 6.9 km/h 11.3 km/h 96% 0.0 mm
09:49 6.5 °C 5.8 °C 1003.6 hPa SSO 6.2 km/h 9.7 km/h 95.4% 0.0 mm
09:54 6.5 °C 5.8 °C 1003.6 hPa SSO 5.8 km/h 8.4 km/h 95% 0.0 mm
09:59 6.6 °C 5.8 °C 1003.6 hPa SSE 5 km/h 8 km/h 95% 0.0 mm
10:04 6.6 °C 5.8 °C 1003.6 hPa SSE 4.7 km/h 10 km/h 95% 0.0 mm
10:09 6.7 °C 5.9 °C 1003.7 hPa SSO 4.9 km/h 9.7 km/h 95% 0.0 mm
10:14 6.7 °C 5.8 °C 1003.7 hPa SSO 5 km/h 9.5 km/h 94.3% 0.0 mm
10:19 6.7 °C 5.8 °C 1003.7 hPa Sur 5.5 km/h 9.7 km/h 94% 0.0 mm
10:24 6.7 °C 5.8 °C 1003.9 hPa SSE 5.8 km/h 8 km/h 94% 0.0 mm
10:29 6.8 °C 5.9 °C 1003.9 hPa ESE 5 km/h 8 km/h 94% 0.0 mm
10:34 6.8 °C 5.9 °C 1003.9 hPa SSE 4.7 km/h 8 km/h 94% 0.0 mm
10:39 6.8 °C 5.8 °C 1003.9 hPa SE 4.2 km/h 8.4 km/h 93.1% 0.0 mm
10:44 6.9 °C 5.8 °C 1003.9 hPa SSE 3.9 km/h 8.4 km/h 92.8% 0.0 mm
10:49 6.9 °C 5.7 °C 1003.9 hPa Sur 5.1 km/h 8.4 km/h 92% 0.0 mm
10:54 6.9 °C 5.7 °C 1003.9 hPa SSO 5.8 km/h 8 km/h 92% 0.0 mm
10:59 7 °C 5.8 °C 1003.9 hPa Sur 4.5 km/h 8 km/h 92% 0.0 mm
11:04 7.1 °C 5.9 °C 1003.9 hPa SSE 3.9 km/h 9.5 km/h 92% 0.0 mm
11:09 7.2 °C 5.9 °C 1003.9 hPa SSE 4.6 km/h 9.7 km/h 91.3% 0.0 mm
11:14 7.2 °C 5.8 °C 1003.8 hPa SSO 5 km/h 8 km/h 91% 0.0 mm
11:19 7.3 °C 5.9 °C 1003.8 hPa SO 3.6 km/h 4.8 km/h 91% 0.0 mm
11:24 7.4 °C 6 °C 1003.8 hPa OSO 2.9 km/h 7.4 km/h 91% 0.0 mm
11:29 7.5 °C 6.1 °C 1003.7 hPa Oeste 2.9 km/h 8 km/h 91% 0.0 mm
11:34 7.6 °C 6.2 °C 1003.7 hPa OSO 2.9 km/h 8.4 km/h 90.8% 0.0 mm
11:39 7.7 °C 6.3 °C 1003.7 hPa OSO 3.1 km/h 8 km/h 90.8% 0.0 mm
11:44 7.8 °C 6.4 °C 1003.5 hPa Oeste 3.2 km/h 5.8 km/h 90.6% 0.0 mm
11:49 7.8 °C 6.2 °C 1003.5 hPa Oeste 3.2 km/h 6.4 km/h 89.2% 0.0 mm
11:54 7.8 °C 6.1 °C 1003.6 hPa SO 3.2 km/h 9.5 km/h 89% 0.0 mm
11:59 7.8 °C 6.2 °C 1003.6 hPa OSO 3.2 km/h 9.7 km/h 89% 0.0 mm
12:04 7.9 °C 6.2 °C 1003.6 hPa OSO 3.2 km/h 7.4 km/h 89% 0.0 mm
12:09 8 °C 6.3 °C 1003.6 hPa ONO 2.6 km/h 8.4 km/h 89% 0.0 mm
12:14 8.1 °C 6.3 °C 1003.3 hPa ONO 2.2 km/h 8 km/h 88.4% 0.0 mm
12:19 8.1 °C 6.2 °C 1003.3 hPa Oeste 3.2 km/h 8.4 km/h 88% 0.0 mm
12:24 8.1 °C 6.2 °C 1003.3 hPa Oeste 3.9 km/h 9.3 km/h 88% 0.0 mm
12:29 8.2 °C 6.3 °C 1002.9 hPa SO 4.6 km/h 9.7 km/h 88% 0.0 mm
12:34 8.2 °C 6.4 °C 1002.9 hPa SSO 5 km/h 8.4 km/h 88% 0.0 mm
12:39 8.3 °C 6.4 °C 1002.9 hPa Sur 5 km/h 8.4 km/h 88% 0.0 mm
12:44 8.3 °C 6.4 °C 1002.8 hPa SSO 5 km/h 9.3 km/h 87.9% 0.0 mm
12:49 8.4 °C 6.4 °C 1002.8 hPa SSO 5.5 km/h 10 km/h 87.7% 0.0 mm
12:54 8.4 °C 6.3 °C 1002.8 hPa SSO 5.8 km/h 9.7 km/h 87% 0.0 mm
12:59 8.4 °C 6.3 °C 1002.7 hPa Sur 5.8 km/h 8 km/h 87% 0.0 mm
13:04 8.4 °C 6.4 °C 1002.7 hPa Sur 5.8 km/h 9.5 km/h 87.7% 0.0 mm
13:09 8.5 °C 6.6 °C 1002.9 hPa Sur 5.8 km/h 9.7 km/h 88% 0.0 mm
13:14 8.6 °C 6.7 °C 1002.9 hPa SSE 5.8 km/h 10 km/h 88% 0.0 mm
13:19 8.6 °C 6.7 °C 1002.9 hPa Sur 6.2 km/h 11.1 km/h 88% 0.0 mm
13:24 8.6 °C 6.7 °C 1002.9 hPa SSO 6.5 km/h 11.3 km/h 87.9% 0.0 mm
13:29 8.6 °C 6.6 °C 1002.6 hPa SSO 5.5 km/h 9.7 km/h 87% 0.0 mm
13:34 8.7 °C 6.7 °C 1002.6 hPa SO 5 km/h 10 km/h 87.6% 0.0 mm
13:39 8.7 °C 6.7 °C 1002.6 hPa OSO 5.5 km/h 10 km/h 87.2% 0.0 mm
13:44 8.8 °C 6.8 °C 1002.4 hPa ONO 5.8 km/h 9.7 km/h 87% 0.0 mm
13:49 8.8 °C 6.8 °C 1002.4 hPa Oeste 4.5 km/h 8 km/h 87% 0.0 mm
13:54 8.8 °C 6.6 °C 1002.4 hPa ONO 3.9 km/h 8 km/h 86.1% 0.0 mm
13:59 8.8 °C 6.6 °C 1002.2 hPa SSO 3.4 km/h 7.4 km/h 86% 0.0 mm
14:04 8.8 °C 6.6 °C 1002.2 hPa SSO 3.2 km/h 8 km/h 86% 0.0 mm
14:09 8.9 °C 6.6 °C 1002.2 hPa SO 3.2 km/h 7.4 km/h 85.6% 0.0 mm
14:14 8.9 °C 6.5 °C 1002.0 hPa OSO 3.2 km/h 8 km/h 85% 0.0 mm
14:19 9.1 °C 6.8 °C 1002.0 hPa OSO 2.6 km/h 5.8 km/h 85% 0.0 mm
14:24 9.3 °C 6.9 °C 1002.0 hPa NNO 2.2 km/h 6.4 km/h 85% 0.0 mm
14:29 9.5 °C 7.1 °C 1001.9 hPa NNO 2.2 km/h 4.8 km/h 84.7% 0.0 mm
14:34 9.8 °C 7.3 °C 1001.9 hPa ONO 2.3 km/h 5.8 km/h 84.2% 0.0 mm
14:39 9.9 °C 7.2 °C 1001.9 hPa OSO 2.7 km/h 8.7 km/h 83% 0.0 mm
14:44 10 °C 7.1 °C 1001.7 hPa OSO 2.9 km/h 11.1 km/h 82.2% 0.0 mm
14:49 10.1 °C 7.2 °C 1001.7 hPa NO 4 km/h 11.3 km/h 82.3% 0.0 mm
14:54 10.2 °C 7.3 °C 1001.7 hPa Oeste 4.7 km/h 11.1 km/h 82.1% 0.0 mm
14:59 10.3 °C 7.4 °C 1001.6 hPa NNO 4.1 km/h 11.3 km/h 82% 0.0 mm
15:04 10.5 °C 7.5 °C 1001.6 hPa NNO 3.9 km/h 7.4 km/h 81.7% 0.0 mm
15:09 10.6 °C 7.5 °C 1001.7 hPa Oeste 3.2 km/h 8 km/h 81% 0.0 mm
15:14 10.6 °C 7.4 °C 1001.7 hPa ONO 2.9 km/h 8.4 km/h 80.7% 0.0 mm
15:19 10.6 °C 7.3 °C 1001.7 hPa SO 3.1 km/h 8 km/h 80.1% 0.0 mm
15:24 10.6 °C 7.3 °C 1001.8 hPa SSE 3.2 km/h 10 km/h 80% 0.0 mm
15:29 10.6 °C 7.3 °C 1001.8 hPa SSE 4.8 km/h 9.7 km/h 80% 0.0 mm
15:34 10.6 °C 7.4 °C 1001.8 hPa ESE 5.8 km/h 8.4 km/h 80.4% 0.0 mm
15:39 10.5 °C 7.2 °C 1002.0 hPa SE 5.8 km/h 11.1 km/h 80.1% 0.0 mm
15:44 10.5 °C 7.4 °C 1002.0 hPa SE 5.8 km/h 11.3 km/h 81% 0.0 mm
15:49 10.5 °C 7.4 °C 1002.0 hPa ESE 6.5 km/h 11.3 km/h 81% 0.0 mm
15:54 10.5 °C 7.4 °C 1002.2 hPa ESE 6.9 km/h 9.7 km/h 81% 0.0 mm
15:59 10.6 °C 7.5 °C 1002.2 hPa ESE 6.6 km/h 9.7 km/h 81% 0.0 mm
16:04 10.6 °C 7.5 °C 1002.2 hPa SE 6.5 km/h 9.7 km/h 81% 0.0 mm
16:09 10.6 °C 7.5 °C 1002.2 hPa Sur 5.5 km/h 8.4 km/h 81.1% 0.0 mm
16:14 10.6 °C 7.6 °C 1002.2 hPa Sur 5 km/h 8 km/h 81.8% 0.0 mm
16:19 10.6 °C 7.6 °C 1002.2 hPa SSO 4.8 km/h 7.6 km/h 81.9% 0.0 mm
16:24 10.6 °C 7.7 °C 1002.2 hPa SO 4.7 km/h 8 km/h 82% 0.0 mm
16:29 10.7 °C 7.8 °C 1002.2 hPa SSO 4.9 km/h 7.6 km/h 82% 0.0 mm
16:34 10.7 °C 7.8 °C 1002.2 hPa SSO 5 km/h 8.7 km/h 82% 0.0 mm
16:39 10.7 °C 7.6 °C 1002.2 hPa SSE 4.8 km/h 9.7 km/h 81.4% 0.0 mm
16:44 10.7 °C 7.6 °C 1002.2 hPa Sur 4.7 km/h 9.7 km/h 81.6% 0.0 mm
16:49 10.6 °C 7.6 °C 1002.2 hPa Sur 5.4 km/h 8 km/h 81.6% 0.0 mm
16:54 10.6 °C 7.6 °C 1002.6 hPa SSO 5.8 km/h 8.4 km/h 82% 0.0 mm
16:59 10.5 °C 7.6 °C 1002.6 hPa SSO 5.2 km/h 9.5 km/h 82.5% 0.0 mm
17:04 10.4 °C 7.6 °C 1002.6 hPa SO 5 km/h 9.7 km/h 83% 0.0 mm
17:09 10.4 °C 7.6 °C 1003.0 hPa SO 5.9 km/h 9.3 km/h 83% 0.0 mm
17:14 10.4 °C 7.7 °C 1003.0 hPa SO 6.5 km/h 10 km/h 83.3% 0.0 mm
17:19 10.5 °C 7.8 °C 1003.0 hPa OSO 6.5 km/h 14.8 km/h 83.7% 0.0 mm
17:24 10.4 °C 7.5 °C 1003.4 hPa OSO 6.5 km/h 14.8 km/h 82.2% 0.0 mm
17:29 10.4 °C 7.4 °C 1003.4 hPa Oeste 7.7 km/h 14.5 km/h 82% 0.0 mm
17:34 10.3 °C 7.3 °C 1003.4 hPa Oeste 8.4 km/h 9.5 km/h 81.7% 0.0 mm
17:39 10.3 °C 7.1 °C 1003.4 hPa ONO 6.1 km/h 9.7 km/h 81% 0.0 mm
17:44 10.2 °C 7.1 °C 1003.1 hPa Oeste 5 km/h 8 km/h 81% 0.0 mm
17:49 10.2 °C 7 °C 1003.1 hPa Oeste 4.8 km/h 10 km/h 81% 0.0 mm
17:54 10.1 °C 7.1 °C 1003.5 hPa Oeste 4.7 km/h 13 km/h 81.5% 0.0 mm
17:59 10 °C 7.1 °C 1003.5 hPa OSO 7.2 km/h 14.8 km/h 81.9% 0.0 mm
18:04 9.9 °C 7 °C 1003.5 hPa Oeste 8.4 km/h 14.8 km/h 82% 0.0 mm
18:09 9.9 °C 6.9 °C 1003.7 hPa Oeste 7.4 km/h 14.8 km/h 82% 0.0 mm
18:14 9.8 °C 6.9 °C 1003.7 hPa ONO 6.9 km/h 22 km/h 82% 0.0 mm
18:19 9.7 °C 6.8 °C 1003.7 hPa Oeste 9 km/h 23.7 km/h 81.9% 0.0 mm
18:24 9.6 °C 6.7 °C 1003.9 hPa Oeste 10 km/h 24.1 km/h 82% 0.0 mm
18:29 9.6 °C 6.7 °C 1003.9 hPa Oeste 10.2 km/h 19.3 km/h 82% 0.0 mm
18:34 9.6 °C 6.6 °C 1003.9 hPa Oeste 10.3 km/h 22.2 km/h 82% 0.0 mm
18:39 9.5 °C 6.5 °C 1004.2 hPa OSO 10.3 km/h 22.5 km/h 81.6% 0.0 mm
18:44 9.5 °C 6.4 °C 1004.2 hPa OSO 10.3 km/h 19 km/h 81.5% 0.0 mm
18:49 9.4 °C 6.3 °C 1004.2 hPa OSO 9.3 km/h 19.3 km/h 81% 0.0 mm
18:54 9.4 °C 6.4 °C 1004.6 hPa OSO 8.7 km/h 19.3 km/h 81.4% 0.0 mm
18:59 9.4 °C 6.5 °C 1004.6 hPa OSO 9.8 km/h 17.7 km/h 82% 0.0 mm
19:04 9.4 °C 6.5 °C 1004.6 hPa SO 10.3 km/h 17.7 km/h 82% 0.0 mm
19:09 9.4 °C 6.5 °C 1004.7 hPa SO 7.8 km/h 11.9 km/h 82% 0.0 mm
19:14 9.4 °C 6.5 °C 1004.7 hPa SO 6.5 km/h 18.3 km/h 82% 0.0 mm
19:19 9.4 °C 6.5 °C 1004.7 hPa SO 7.7 km/h 19.3 km/h 82% 0.0 mm
19:24 9.4 °C 6.5 °C 1004.8 hPa SO 8.4 km/h 16.1 km/h 82% 0.0 mm
19:29 9.4 °C 6.5 °C 1004.8 hPa OSO 7.9 km/h 14.5 km/h 82% 0.0 mm
19:34 9.4 °C 6.5 °C 1004.8 hPa SO 7.6 km/h 12.9 km/h 82% 0.0 mm
19:39 9.3 °C 6.4 °C 1004.9 hPa SO 6.9 km/h 11.3 km/h 82% 0.0 mm
19:44 9.3 °C 6.3 °C 1004.9 hPa SSO 6.5 km/h 14.8 km/h 81.6% 0.0 mm
19:49 9.3 °C 6.3 °C 1004.9 hPa Sur 6.8 km/h 14.5 km/h 81.6% 0.0 mm
19:54 9.2 °C 6.4 °C 1005.2 hPa Sur 6.9 km/h 13 km/h 82.4% 0.0 mm
19:59 9.1 °C 6.3 °C 1005.2 hPa SSO 7.3 km/h 13 km/h 82.8% 0.0 mm
20:04 8.9 °C 6 °C 1005.2 hPa SSO 7.6 km/h 14.8 km/h 82.1% 0.0 mm
20:09 8.8 °C 5.9 °C 1005.3 hPa SSO 7.6 km/h 14.5 km/h 82% 0.0 mm
20:14 8.7 °C 5.8 °C 1005.3 hPa SSE 7.6 km/h 12.9 km/h 82% 0.0 mm
20:19 8.7 °C 5.8 °C 1005.3 hPa SSE 7.1 km/h 11.3 km/h 82% 0.0 mm
20:24 8.6 °C 5.7 °C 1005.6 hPa Sur 6.9 km/h 10 km/h 82% 0.0 mm
20:29 8.5 °C 5.6 °C 1005.6 hPa SSO 6.6 km/h 11.1 km/h 82% 0.0 mm
20:34 8.4 °C 5.5 °C 1005.6 hPa SO 6.5 km/h 11.3 km/h 82% 0.0 mm
20:39 8.4 °C 5.5 °C 1005.6 hPa SO 6 km/h 9.7 km/h 82% 0.0 mm
20:44 8.3 °C 5.4 °C 1005.6 hPa SO 5.8 km/h 11.1 km/h 82% 0.0 mm
20:49 8.3 °C 5.4 °C 1005.6 hPa SO 5.8 km/h 11.3 km/h 82% 0.0 mm
20:54 8.2 °C 5.3 °C 1005.7 hPa SSO 5.8 km/h 9.7 km/h 82% 0.0 mm
20:59 8.2 °C 5.3 °C 1005.7 hPa SSO 4.5 km/h 9.5 km/h 82% 0.0 mm
21:04 8.2 °C 5.4 °C 1005.7 hPa Sur 3.9 km/h 11.9 km/h 82.5% 0.0 mm
21:09 8.1 °C 5.4 °C 1005.7 hPa Sur 5.1 km/h 11.3 km/h 83% 0.0 mm
21:14 8 °C 5.2 °C 1005.7 hPa SSO 5.8 km/h 11.1 km/h 83% 0.0 mm
21:19 7.9 °C 5.2 °C 1005.7 hPa SSO 6.5 km/h 11.3 km/h 83% 0.0 mm
21:24 7.8 °C 5.1 °C 1005.9 hPa Sur 6.9 km/h 10 km/h 83% 0.0 mm
21:29 7.8 °C 5.1 °C 1005.9 hPa SSO 6.6 km/h 10 km/h 83% 0.0 mm
21:34 7.7 °C 5 °C 1005.9 hPa SO 6.5 km/h 11.1 km/h 83% 0.0 mm
21:39 7.7 °C 5 °C 1006.1 hPa Sur 6.5 km/h 11.3 km/h 83.5% 0.0 mm
21:44 7.6 °C 5.1 °C 1006.1 hPa Sur 6.5 km/h 10 km/h 84% 0.0 mm
21:49 7.6 °C 5.1 °C 1006.1 hPa Sur 6.8 km/h 10 km/h 84% 0.0 mm
21:54 7.6 °C 5 °C 1006.2 hPa SSO 6.9 km/h 13 km/h 84% 0.0 mm
21:59 7.5 °C 4.9 °C 1006.2 hPa SSO 7.4 km/h 13 km/h 83.4% 0.0 mm
22:04 7.6 °C 4.9 °C 1006.2 hPa SO 7.6 km/h 14 km/h 83% 0.0 mm
22:09 7.6 °C 4.9 °C 1006.2 hPa SO 7.1 km/h 14.5 km/h 83% 0.0 mm
22:14 7.6 °C 4.9 °C 1006.1 hPa OSO 6.9 km/h 8 km/h 83% 0.0 mm
22:19 7.6 °C 4.8 °C 1006.1 hPa OSO 3.9 km/h 4.8 km/h 83% 0.0 mm
22:24 7.5 °C 4.8 °C 1006.2 hPa OSO 2.2 km/h 3.2 km/h 83% 0.0 mm
22:29 7.4 °C 4.8 °C 1006.2 hPa OSO 0.8 km/h 7.4 km/h 83% 0.0 mm
22:34 7.4 °C 4.8 °C 1006.2 hPa Calm   8 km/h 83.6% 0.0 mm
22:39 7.4 °C 4.9 °C 1006.3 hPa SSO 3.1 km/h 6.4 km/h 84% 0.0 mm
22:44 7.4 °C 4.9 °C 1006.3 hPa Sur 4.7 km/h 8 km/h 84% 0.0 mm
22:49 7.4 °C 4.9 °C 1006.3 hPa Sur 4.1 km/h 8 km/h 84.2% 0.0 mm
22:54 7.4 °C 5 °C 1006.4 hPa SO 3.9 km/h 6.4 km/h 85% 0.0 mm
22:59 7.3 °C 4.9 °C 1006.4 hPa OSO 3.4 km/h 6.4 km/h 85% 0.0 mm
23:04 7.3 °C 4.9 °C 1006.4 hPa OSO 3.2 km/h 5 km/h 85% 0.0 mm
23:09 7.2 °C 4.8 °C 1006.5 hPa OSO 2.6 km/h 8.7 km/h 85% 0.0 mm
23:14 7.2 °C 4.8 °C 1006.5 hPa SO 2.2 km/h 10 km/h 85% 0.0 mm
23:19 7.2 °C 4.9 °C 1006.5 hPa SO 4.1 km/h 9.7 km/h 85.9% 0.0 mm
23:24 7.1 °C 4.9 °C 1006.5 hPa OSO 5 km/h 8 km/h 86% 0.0 mm
23:26 7.1 °C 4.9 °C 1006.4 hPa OSO 5 km/h 6.4 km/h 86% 0.0 mm
Murcia-Puente Tocinos, Espa?a
Compliments of Weather Underground - 3 mb

La estación de MeteoMurcia.com, publica sus datos en los siguientes proyectos:

Weather Underground PWS IMURCIAP2 Meteoclimatic www.awekas.at

W3Counter
Web Analytics